User: anonymous   Login
Location: SAPM � Hemmingford
(45.0500°N, 73.5833°W)
Time: 08:54:51
(UTC-05:00)
Language:

Iridium 75 - Orbit

View from above orbital plane
View from above orbital plane
View from above satellite
View from above satellite

Ground track
Ground track

The orbit data is extracted from the following two-line orbital elements,

1 25346U 98032E   15058.50219943  .00000254  00000-0  83762-4 0  9995
2 25346 086.3969 215.4632 0002001 095.2898 325.8204 14.34219604879170
Epoch (UTC): 27 February 2015 12:03:10
Eccentricity: 0.0002001
inclination: 86.3969°
perigee height: 776 km
apogee height: 779 km
right ascension of ascending node: 215.4632°
argument of perigee: 95.2898°
revolutions per day: 14.34219604
mean anomaly at epoch: 325.8204°
orbit number at epoch: 87917

The dashed part of the orbit path shows where the satellite is in the earth's shadow,  

DLR